Regional Weather Roundup
Issued by NWS

Home | Current Version | Previous Version | Text Only | Print | Product List | Glossary Off
Versions: 1 2 3 4 5 6 7 8 9 10 11 12 13 14 15 16 17 18 19 20 21 22 23 24 25 26 27 28 29 30 31 32 33 34 35 36 37 38 39 40 41 42 43 44 45 46 47 48 49 50

000
ASUS43 KMKX 202000
RWRWI

WISCONSIN REGIONAL WEATHER ROUNDUP
NATIONAL WEATHER SERVICE MILWAUKEE/SULLIVAN WI
300 PM CDT MON OCT 20 2014

NOTE: "FAIR" INDICATES FEW OR NO CLOUDS BELOW 12,000 FEET WITH NO
SIGNIFICANT WEATHER AND/OR OBSTRUCTIONS TO VISIBILITY.

WIZ001-002-006>008-014>016-023>028-202100-
NORTHWEST WISCONSIN

CITY           SKY/WX    TMP DP  RH WIND       PRES   REMARKS
SUPERIOR ARPT  CLOUDY    52  41  68 N3        30.00S
ASHLAND        CLOUDY    54  40  59 N7        29.98S
HAYWARD        CLOUDY    52  40  63 NW8       29.98S
SIREN          CLOUDY    56  39  53 N9        29.99S
CUMBERLAND     CLOUDY    52  37  58 N10       29.98S
RICE LAKE      CLOUDY    54  39  57 N13       29.99S
CHETEK         CLOUDY    53  40  61 N10G17    29.98R
LADYSMITH      CLOUDY    53  41  64 NW8       29.98R
EAU CLAIRE     NOT AVBL
MENOMONIE      MOSUNNY   58  41  52 NW13      29.97S
NEW RICHMOND   SUNNY     58  40  52 NW12      29.98S
OSCEOLA        MOSUNNY   58  42  54 NW9       30.01S
$$

WIZ003>005-009-010-017-018-202100-
NORTH CENTRAL WISCONSIN

CITY           SKY/WX    TMP DP  RH WIND       PRES   REMARKS
MANITOWISH WTR RAIN      46  42  88 N8        29.94R
ARBOR VITAE    CLOUDY    49  43  79 N13G18    29.93S
WOODRUFF       CLOUDY    49  43  79 N13G18    29.93S
RHINELANDER    CLOUDY    47  41  80 NW8       29.93R
EAGLE RIVER    CLOUDY    47  44  92 N7        29.92R
LAND O LAKES   LGT RAIN  46  42  85 N12       29.93S
PHILLIPS       CLOUDY    48  40  73 N7        29.95R
TOMAHAWK       CLOUDY    48  41  76 CALM      29.94S
MEDFORD        CLOUDY    50  40  68 NW12      29.94S
MERRILL        CLOUDY    50  41  73 N12G17    29.93S
$$

WIZ029-030-035-036-043>047-202100-
CENTRAL WISCONSIN

CITY           SKY/WX    TMP DP  RH WIND       PRES   REMARKS
WAUSAU         CLOUDY    51  41  68 N14G21    29.92R
MOSINEE        CLOUDY    48  43  81 NW13      29.94R
MARSHFIELD     CLOUDY    53  40  61 N13       29.94R
STEVENS POINT  CLOUDY    51  40  66 NW10      29.93R
WAUPACA        CLOUDY    54  44  71 NW9       29.93R
WAUTOMA        NOT AVBL
WISC RAPIDS    CLOUDY    56  39  53 NW15      29.94R
CAMP DOUGLAS   NOT AVBL
$$

WIZ011>013-019>022-031-037>040-048>050-202100-
NORTHEAST WISCONSIN

CITY           SKY/WX    TMP DP  RH WIND       PRES   REMARKS
ANTIGO         CLOUDY    47  43  87 NW6       29.92R
SHAWANO        CLOUDY    54  42  63 NW7       29.90S
OCONTO         CLOUDY    52  43  70 N9        29.88S
STURGEON BAY   CLOUDY    50  41  71 N12       29.89R
GREEN BAY      CLOUDY    54  42  64 N10       29.90R
MANITOWOC      NOT AVBL
APPLETON       CLOUDY    54  41  62 NW17      29.91R
CLINTONVILLE   CLOUDY    52  43  71 W10       29.90S
OSHKOSH        CLOUDY    54  43  66 NW9G20    29.90R
$$

WIZ032>034-041-042-053>061-202100-
SOUTHWEST WISCONSIN

CITY           SKY/WX    TMP DP  RH WIND       PRES   REMARKS
LA CROSSE      MOSUNNY   67  42  40 NW10      29.92S
SPARTA         MOSUNNY   60  38  44 N14       29.94S
VIROQUA        SUNNY     61  41  47 NW12      29.93S
BOSCOBEL       SUNNY     66  41  40 NW15      29.92S
PRAIRIE DU CHI SUNNY     65  40  39 NW14G20   29.91F
PLATTEVILLE    PTSUNNY   64  43  46 NW14      29.92S
$$

WIZ056-057-062-063-064-067-068-202100-
SOUTH CENTRAL WISCONSIN

CITY           SKY/WX    TMP DP  RH WIND       PRES   REMARKS
REEDSBURG      CLOUDY    58  42  53 N15       29.90F
BARABOO/DELLS  CLOUDY    56  39  52 N7        29.92R
LONE ROCK      NOT AVBL
MINERAL POINT  PTSUNNY   63  37  39 NW12G17   29.91S
MADISON        CLOUDY    58  40  51 N12G21    29.91R
MIDDLETON      CLOUDY    60  40  47 N12       29.91R
WATERTOWN      CLOUDY    55  43  62 N6        29.89S
MONROE         MOSUNNY   61  43  51 N12G17    29.89S
JANESVILLE     MOSUNNY   63  37  39 NW16G25   29.89R
$$

WIZ051-052-058>065-066-070>072-202100-
SOUTHEAST WISCONSIN

CITY           SKY/WX    TMP DP  RH WIND       PRES   REMARKS
MILWAUKEE      CLOUDY    54  45  71 NE7       29.87R
WAUKESHA       CLOUDY    54  45  71 NW13      29.90R
MILWAUKEE/TIMM CLOUDY    55  45  67 NW14G20   29.88
RACINE         CLOUDY    54  44  69 N10       29.89R
BURLINGTON     CLOUDY    57  43  59 NW15G22   29.88R
KENOSHA        CLOUDY    56  47  71 N9        29.87R
FOND DU LAC    CLOUDY    53  43  68 NW12      29.90R
SHEBOYGAN      CLOUDY    53  43  68 NW10      29.89R
WEST BEND      CLOUDY    52  41  66 NW12G18   29.88S
JUNEAU         CLOUDY    53  42  67 N8        29.91R
$$

LSZ147-162-202100-
LAKE SUPERIOR

STATION/POSITION TIME  TEMP    WIND        PRES    WAVE
                       AIR SEA DIR/SP/G            HT/PER
                 (UTC) (F)     (DEG/KT/KT) (MB)    (FT/S)
W MID LAKE BUOY  1850   47 46  310/  4/  6 1014.7R   1
DEVILS ISLAND    1900   49     340/  7/  8 1015.4R
PORT WING        1900   51     310/  7/ 10 1015.6R
SAXON HARBOR     1900   51     320/  7/ 10 1014.9R
$$

LMZ867-665-643>646-202100-
LAKE MICHIGAN

STATION/POSITION TIME  TEMP    WIND        PRES    WAVE
                       AIR SEA DIR/SP/G            HT/PER
                 (UTC) (F)     (DEG/KT/KT) (MB)    (FT/S)
CHAMBERS ISLAND  1900   51     310/ 16/ 19 1011.5S
N MID LAKE BUOY  1850   49 51  330/ 19/ 23 1010.4R   3/ 4
NORTHPORT PIER   1900   50     330/ 16/ 19 1011.2S
KEWAUNEE LAKESHO 1900   53     340/  7/ 13 1010.6R
SHEBOYGAN LAKESH 1900   53 51  310/  9/ 11 1011.7R
PORT WASHINGTON  1940   55     310/  5/ 10 1012.5R
ATWATER BUOY     1900   53      20/  6/  8 1012.3R
MILWAUKEE LAKESH 1900   53      20/ 11/ 13   N/A
S MID LAKE BUOY  1850   53 55  330/ 16/ 19 1010.6R   2/ 4
KENOSHA   LAKESH 1900   53      30/ 16/ 17 1010.8R
$$

TC  - TEMPERATURE IN CELSIUS
VSB - VISIBILITY IN STATUTE MILES
WCI - WIND CHILL INDEX
HX  - HEAT INDEX



USA.gov is the U.S. government's official web portal to all federal, state and local government web resources and services.